Location: Unspecified
(41.5000°N, 0.0000°E)
Time: 21:26:43
(UTC+00:00)

deb Explorer IX - Pass Details

Date: 04 October 2020
Orbit: 537 x 1106 km, 38.8° (Epoch: 26 October)

Event Time Altitude Azimuth Distance (km) Brightness Sun altitude
Rises 18:03:11 0° 271° (W) 3,179 ? -5.9°
Reaches altitude 10° 18:05:49 10° 267° (W) 2,160 ? -6.4°
Maximum altitude 18:10:40 57° 190° (S) 739 ? -7.3°
Drops below altitude 10° 18:14:54 10° 111° (ESE) 1,885 ? -8.1°
Enters shadow 18:15:08 - 111° (ESE) 1,976 ? -8.1°
